Location: *
(8.5167°S, 175.6333°W)
Time: 12:22:41
(UTC+00:00)

Daily predictions for brighter satellites

Satellite Brightness Start Highest point End
(mag) Time Altitude Azimuth Time Altitude Azimuth Time Altitude Azimuth
ARIANE 5 R/B 4.1 15:25:49 51° NNW 15:25:56 51° NNW 15:30:19 10° ENE
Lacrosse 4 Rocket 3.4 16:01:33 23° N 16:01:33 23° N 16:03:18 10° N
Timation 2 Rocket 4.0 15:57:59 62° SSW 15:59:15 88° ESE 16:05:55 10° NNE
Nadezhda 4 Rocket 4.3 15:59:45 10° NNW 16:04:32 49° NW 16:04:32 49° NW
FENGYUN 3A 3.5 16:02:34 10° NNE 16:07:58 87° ESE 16:08:59 61° S
Cosmos 1025 Rocket 3.7 16:07:38 10° N 16:11:46 51° E 16:15:12 15° SSE
CZ-4B R/B 3.2 16:09:21 10° NNE 16:13:47 77° ESE 16:14:18 67° SSE
Cosmos 1818 4.5 16:10:52 10° N 16:16:02 48° ENE 16:21:14 10° SE
SJ-12 3.9 16:17:32 10° NNE 16:21:35 76° ESE 16:22:18 58° SSE
Cosmos 1777 Rocket 3.8 16:21:43 57° SW 16:22:40 71° WNW 16:27:49 10° N
Centaur AC-64 4.3 15:49:25 10° WNW 16:23:03 88° NNE 16:27:46 10° ESE
Meteor 1-21 4.5 16:19:30 10° NNW 16:24:53 46° W 16:24:53 46° W
Cosmos 2297 Rocket 2.4 16:23:26 20° S 16:27:24 67° ESE 16:32:59 10° NNE
ARIANE 5 DEB (SYLDA) 4.5 16:28:22 14° NNE 16:28:22 14° NNE 16:29:12 10° NE
Cosmos 2322 Rocket 3.4 16:23:03 10° N 16:28:23 43° ENE 16:33:46 10° SE
Cosmos 1536 Rocket 3.5 16:28:25 10° N 16:32:45 81° E 16:37:06 10° S
Cosmos 1428 Rocket 4.5 16:28:09 10° N 16:34:22 88° E 16:40:41 10° S
Ariane H10+ 2.4 16:34:53 27° NW 16:35:48 30° NNW 16:38:14 10° NE
SJ 16-02 3.5 16:33:44 10° SSE 16:37:21 25° ESE 16:40:57 10° NE
METEOR-M 4.4 16:36:01 10° N 16:41:04 45° WNW 16:43:18 29° SW
Cosmos 1627 Rocket 4.4 16:36:00 10° NNW 16:42:03 65° W 16:48:13 10° S
Chandra Rocket (1) 3.4 16:37:24 23° SW 16:43:39 56° SSE 16:47:42 10° E
Meteor PRIRODA 3.9 16:40:55 10° N 16:44:26 45° W 16:44:49 43° W
Cosmos 1544 Rocket 4.4 16:40:47 10° S 16:44:59 50° E 16:49:12 10° NNE
SAR-Lupe-4 3.8 16:47:19 37° SW 16:48:05 44° WSW 16:51:28 10° NNW
CZ-4B R/B 1.7 16:49:11 38° SW 16:49:50 44° WSW 16:53:07 10° NNW
Cosmos 1340 Rocket 4.4 16:46:07 10° SSE 16:49:54 37° E 16:53:39 10° NNE
SEDSat Delta rocket 3.9 16:45:55 19° WNW 16:50:36 61° SSW 16:56:33 10° SE
H-2A R/B 2.4 16:48:12 10° N 16:52:03 54° WNW 16:54:22 22° SSW
ALOS 3.3 16:48:47 10° NNW 16:52:32 24° W 16:52:49 24° W
In-Cosmos 22 4.1 16:47:00 10° N 16:52:38 76° W 16:58:09 10° S
ATLAS 5 CENTAUR R/B 2.8 16:50:38 10° NW 16:57:33 56° WSW 17:04:36 10° SSE
Cosmos 1437 3.0 16:56:26 10° N 16:59:23 61° E 17:02:19 10° SSE
Cosmos 2360 Rocket 3.7 16:54:17 10° N 16:59:31 40° ENE 17:04:46 10° SE
Cosmos 2208 Rocket 4.5 16:54:57 10° NW 16:59:43 36° WSW 17:04:29 10° S
Cosmos 1814 Rocket 4.4 16:57:11 10° NW 17:01:58 37° WSW 17:06:50 10° S
SJ-7 4.4 17:00:24 10° NNE 17:04:22 85° ESE 17:08:25 10° S
Okean O Rocket 2.6 17:00:10 10° NNE 17:04:24 48° ESE 17:08:41 10° S
Maqsat-H 2.4 16:58:58 13° W 17:08:07 84° N 17:11:52 10° E
PSLV R/B 4.4 17:07:31 10° N 17:11:15 37° W 17:14:56 10° SSW
GPS 2-15 Rocket1 3.5 17:08:32 17° WSW 17:12:07 56° SSE 17:16:46 10° E
Cosmos 2227 Rocket 2.5 17:06:46 10° SSW 17:12:12 48° WNW 17:17:37 10° N
GPS 2-12 Rocket1 3.0 17:11:15 12° W 17:15:28 68° SSW 17:19:59 10° ESE
PAYLOAD B 4.2 17:11:03 10° N 17:16:29 69° WNW 17:21:59 10° SSW
Cosmos 2082 3.8 17:11:01 10° SSW 17:16:46 88° ESE 17:22:26 10° NNE
Cosmos 1758 3.4 17:13:46 10° SSW 17:17:45 56° W 17:21:44 10° N
Meteor 2-10 4.2 17:14:19 10° S 17:19:23 75° E 17:24:23 10° N
Cosmos 990 Rocket 4.4 17:15:11 10° S 17:20:25 68° ESE 17:25:37 10° NNE
SWIFT 3.2 17:19:12 10° NW 17:23:20 51° NNE 17:27:30 10° E
KORONAS-FOTON 4.0 17:22:08 10° NNW 17:25:44 46° W 17:29:24 10° S
Cosmos 1470 3.5 17:22:24 10° SSW 17:25:49 30° W 17:29:13 10° NNW
Delta 198 4.5 17:21:44 10° W 17:26:19 33° SSW 17:30:20 10° SE
SKYMED 2 3.7 17:25:58 10° SSE 17:30:20 83° ENE 17:34:40 10° N
SMAP 3.3 17:27:28 10° NNE 17:32:06 78° ESE 17:36:47 10° S
SL-16 R/B 3.0 17:27:23 10° NW 17:32:10 28° WSW 17:36:59 10° SSW
Cosmos 1626 2.5 17:32:09 10° N 17:35:49 68° E 17:39:30 10° S
Cosmos 1898 Rocket 3.6 17:31:26 10° SSW 17:36:47 84° WNW 17:42:06 10° N
ASTRO E2 3.2 17:33:02 10° NW 17:36:57 63° NNE 17:40:54 10° ESE
GPS 2-04 Rocket1 2.9 17:35:59 10° NW 17:39:55 80° NE 17:44:02 10° SE
CZ-4B R/B 3.3 17:34:41 10° N 17:39:58 57° WNW 17:45:25 10° SSW
Cosmos 2333 Rocket 4.4 17:36:08 10° NNE 17:41:10 32° ENE 17:46:12 10° SE
